Location: Mentone
(34.5413°N, 85.5351°W)
Time: 07:28:03
(UTC-05:00)

Vanguard 1 - Visible Passes

Search period start: 02 October 2014 00:00
Search period end: 12 October 2014 00:00
Orbit: 651 x 3836 km, 34.2° (Epoch: 29 September)

Date Brightness Start Highest point End Pass type
(mag) Time Alt. Az. Time Alt. Az. Time Alt. Az.
02 Oct 12.7 18:16:27 10° W 18:31:04 84° SSW 18:54:28 10° ESE visible
02 Oct 13.0 20:39:01 10° WNW 20:57:27 57° SSW 21:10:07 33° SSE visible
02 Oct 13.7 23:06:20 10° W 23:22:27 25° SW 23:22:54 25° SW visible
03 Oct 12.7 18:38:10 10° W 18:53:15 79° SSW 19:16:43 10° ESE visible
03 Oct 13.2 21:01:10 10° W 21:19:21 49° SW 21:30:44 32° SSE visible
03 Oct 13.9 23:31:11 10° W 23:43:31 18° SW 23:43:31 18° SW visible
04 Oct 12.8 18:59:55 10° WNW 19:15:23 72° SSW 19:38:41 10° ESE visible
04 Oct 13.4 21:23:34 10° W 21:41:10 40° SW 21:51:29 29° S visible
04 Oct 14.1 23:59:58 10° WSW 00:04:18 11° SW 00:04:18 11° SW visible
05 Oct 12.9 19:21:43 10° WNW 19:37:27 63° SSW 19:59:35 12° SE visible
05 Oct 13.6 21:46:23 10° W 22:02:54 32° SW 22:12:24 24° S visible
06 Oct 13.1 19:43:37 10° W 19:59:27 55° SSW 20:20:39 12° SE visible
06 Oct 13.8 22:09:55 10° W 22:24:36 24° SW 22:33:29 19° SSW visible
07 Oct 13.3 20:05:41 10° W 20:21:24 46° SSW 20:41:55 12° SSE visible
07 Oct 14.0 22:34:53 10° WSW 22:46:20 17° SW 22:54:46 13° SSW visible
08 Oct 12.7 18:05:17 10° W 18:18:07 68° SSW 18:39:53 10° SE visible
08 Oct 13.5 20:28:02 10° W 20:43:18 37° SW 21:03:15 10° SSE visible
08 Oct 14.2 23:05:30 10° SW 23:08:08 10° SW 23:10:49 10° SW visible
09 Oct 12.9 18:27:00 10° W 18:40:07 59° SSW 19:01:36 10° SE visible
09 Oct 13.7 20:50:51 10° W 21:05:10 29° SW 21:23:07 10° SSE visible
10 Oct 13.1 18:48:50 10° W 19:02:05 50° SSW 19:22:56 10° SE visible
10 Oct 14.0 21:14:28 10° W 21:27:04 22° SW 21:42:06 10° S visible
11 Oct 13.3 19:10:52 10° W 19:24:02 41° SSW 19:43:51 10° SSE visible
11 Oct 14.2 21:39:49 10° WSW 21:49:00 15° SW 21:59:18 10° SSW visible
